Probability
0 0 0 0 0 0 0 0 0 1 1 1 1 1 0 0 0 0 0 0 0 0 0 0 0 0 0 0 0 0 0 0 0 1 3 4 5 5 5 5 7 11 14 16
0 0 0 0 0 0 0 0 0 0 1 1 2 1 0 0 0 0 0 0 0 0 0 0 0 0 0 0 0 0 0 0 0 1 2 3 4 5 5 5 8 11 14 17
0 0 0 0 0 0 0 0 0 0 0 1 2 1 0 0 0 0 0 0 0 0 0 0 0 0 0 0 0 0 0 0 0 1 1 1 2 4 5 5 9 13 15 17
0 0 0 0 0 0 0 0 0 0 0 1 1 0 0 0 0 0 0 0 0 0 0 0 0 0 0 0 0 0 0 0 0 0 0 0 1 2 3 3 6 12 16 18
0 0 0 0 0 0 0 0 0 0 0 0 0 0 0 0 0 0 0 0 0 0 0 0 0 0 0 0 0 0 0 0 0 0 0 0 0 0 0 1 3 7 13 16
0 0 0 0 0 0 0 0 0 0 0 0 0 0 0 0 0 0 0 0 0 0 0 0 0 0 0 0 0 0 0 0 0 0 0 0 0 0 0 0 0 2 6 9
0 0 0 0 0 0 0 0 0 0 0 0 0 0 0 0 0 0 0 0 0 0 0 0 0 0 0 0 0 0 0 0 0 0 0 0 0 0 0 0 0 0 1 2
0 0 0 0 0 0 0 0 0 0 0 0 0 0 0 0 0 0 0 0 0 0 0 0 0 0 0 0 0 0 0 0 0 0 0 0 0 0 0 0 0 0 0 1
0 0 0 0 0 0 0 0 0 0 0 0 0 0 0 0 0 0 0 0 0 0 0 0 0 0 0 0 0 0 0 0 0 0 0 0 0 0 0 1 1 0 0 0
0 0 0 0 0 0 0 0 0 0 0 0 0 0 0 0 0 0 0 0 0 0 0 0 0 0 0 0 0 0 0 0 0 0 0 0 0 0 0 1 1 1 1 0
0 0 0 0 0 0 0 0 0 0 0 0 0 0 0 0 0 0 0 0 0 0 0 0 0 0 0 0 0 0 0 0 0 0 0 0 0 0 0 1 1 1 1 1
0 0 0 0 0 0 0 0 0 0 0 0 0 0 0 0 0 0 0 0 0 0 0 0 0 0 0 0 0 0 0 0 0 0 0 0 0 0 0 0 0 1 1 0
0 0 0 0 0 0 0 0 0 0 0 0 0 0 0 0 0 0 0 0 0 0 0 0 0 0 0 0 0 0 0 0 0 0 0 0 0 0 0 0 0 0 0 0
0 0 0 0 0 0 0 0 0 0 0 0 0 0 0 0 0 0 0 0 0 0 0 0 0 0 0 0 0 0 0 0 0 0 0 0 0 0 0 0 0 0 0 0
0 0 0 0 0 0 0 0 0 0 0 0 0 0 0 0 0 0 0 0 0 0 0 0 0 0 0 0 0 0 0 0 0 0 0 0 0 0 0 0 0 0 0 0
0 0 0 0 0 0 0 0 0 0 0 0 0 0 0 0 0 0 0 0 0 0 0 0 0 0 0 0 0 0 0 0 0 0 0 0 0 0 0 0 0 0 0 0
0 0 0 0 0 0 0 0 0 0 0 0 0 0 0 0 0 0 0 0 0 0 0 0 0 0 0 0 0 0 0 0 0 0 0 0 0 0 0 0 0 0 0 0
0 0 0 0 0 0 0 0 0 0 0 0 0 0 0 0 0 0 0 0 0 0 0 0 0 0 0 0 0 0 0 0 0 0 0 0 0 0 0 0 0 0 0 0
0 0 0 0 0 0 0 0 0 0 0 0 0 0 0 0 0 0 0 0 0 0 0 0 0 0 0 0 0 0 0 0 0 0 0 0 0 0 0 0 0 0 0 0
0 0 0 0 0 0 0 0 0 0 0 0 0 0 0 0 0 0 0 0 0 0 0 0 0 0 0 0 0 0 0 0 0 0 0 0 0 0 0 0 0 0 0 0
0 0 0 0 0 0 0 0 0 0 0 0 0 0 0 0 0 0 0 0 0 0 0 0 0 0 0 0 0 0 0 0 0 0 0 0 0 0 0 0 0 0 0 0
0 0 0 0 0 0 0 0 0 0 0 0 0 0 0 0 0 0 0 0 0 0 0 0 0 0 0 0 0 0 0 0 0 0 0 0 0 0 0 0 0 0 0 0
0 0 0 0 0 0 0 0 0 0 0 0 0 0 0 0 0 0 0 0 0 0 0 0 0 0 0 0 0 0 0 0 0 0 0 0 0 0 0 0 0 0 0 0
0 0 0 0 0 0 0 0 0 0 0 0 0 0 0 0 0 0 0 0 0 0 0 0 0 0 0 0 0 0 0 0 0 0 0 0 0 0 0 0 0 0 0 0
0 0 0 0 0 0 0 0 0 0 0 0 0 0 0 0 0 0 0 0 0 0 0 0 0 0 0 0 0 0 0 0 0 0 0 0 0 0 0 0 0 0 0 0
0 0 0 0 0 0 0 0 0 0 0 0 0 0 0 0 0 0 0 0 0 0 0 0 0 0 0 0 0 0 0 0 0 0 0 0 0 0 0 0 0 0 0 0
Wind_Speed
4 2 3 5 5 7 8 6 1 9 5 3 5 6 5 4 5 7 8 9 10 11 11 10 10 10 10 10 10 9 8 8 7 5 4 4 4 4 4 3 4 4 5 5
5 3 5 4 4 7 8 7 3 7 4 1 3 5 6 4 5 6 8 9 10 10 10 10 10 10 10 10 10 10 9 8 7 5 5 4 4 3 4 3 4 4 4 4
5 6 3 3 4 8 6 6 6 2 3 3 4 4 7 5 5 6 7 8 9 9 11 10 10 9 9 10 10 10 10 9 8 7 5 5 4 3 3 4 3 3 3 3
7 4 1 2 5 8 5 6 4 2 4 4 6 2 7 5 5 6 8 8 8 9 9 8 9 9 10 10 9 10 10 10 9 7 6 6 5 4 5 4 3 3 3 3
6 4 3 3 5 6 5 3 5 6 8 7 6 3 7 5 4 7 7 8 8 8 9 9 9 9 10 9 9 9 10 10 9 8 7 6 5 5 4 4 4 3 2 2
8 5 5 4 1 2 3 6 8 8 7 7 2 2 6 4 6 7 7 7 8 7 8 8 8 7 8 8 8 8 9 9 9 8 7 7 7 7 6 6 5 3 2 2
8 7 4 1 4 5 5 7 5 5 6 2 3 2 7 6 5 5 6 7 7 6 6 7 7 7 7 8 8 8 8 8 9 9 8 8 7 7 6 6 5 4 3 2
9 8 5 4 5 5 5 5 6 6 4 2 4 4 7 6 4 3 4 5 6 6 5 6 7 6 7 7 8 8 9 8 9 9 8 8 7 5 4 5 4 4 3 3
5 8 5 4 3 5 6 4 4 6 9 5 5 8 8 4 3 4 5 5 5 6 6 6 6 6 6 7 7 7 8 8 8 9 8 7 8 6 6 6 5 4 3 4
7 4 6 3 4 5 3 6 5 5 6 5 2 5 4 4 4 4 5 5 5 6 5 5 5 6 5 5 5 6 6 7 7 8 8 7 7 7 6 6 6 6 5 5
6 3 7 5 1 3 3 3 3 4 2 4 3 4 5 4 3 3 4 5 5 5 4 4 3 4 4 5 5 5 6 6 7 7 7 8 7 7 7 7 7 6 6 6
3 5 3 5 5 2 3 5 5 5 5 2 1 4 5 4 3 2 3 4 4 4 3 3 3 3 4 4 5 5 6 6 6 6 7 7 7 8 8 8 8 7 7 6
4 5 2 6 5 4 3 0 3 5 4 2 2 5 5 3 3 3 2 2 2 3 3 3 3 3 3 4 4 5 5 5 5 6 7 7 8 8 8 8 8 8 8 7
4 4 3 5 5 2 2 3 2 5 4 3 1 4 5 4 3 2 1 1 2 3 4 4 3 3 3 3 4 5 5 5 5 6 7 7 8 8 8 8 8 8 8 8
5 4 1 3 1 1 1 3 4 5 5 4 3 1 2 4 3 2 2 1 2 3 4 4 4 3 3 3 4 4 4 5 5 6 7 7 7 7 7 7 8 8 8 9
4 4 1 3 4 3 6 7 7 6 6 5 3 2 4 6 3 3 3 2 1 2 4 4 4 4 4 3 3 3 4 4 5 6 6 6 6 7 7 7 7 7 8 8
4 4 4 3 6 6 8 9 10 8 6 6 6 3 7 6 5 3 2 2 2 2 2 3 4 4 4 4 4 4 4 5 6 6 5 6 6 7 7 7 7 6 7 7
3 3 3 5 4 5 4 4 5 7 8 7 5 4 6 5 5 3 2 2 3 3 2 3 3 3 3 4 3 3 4 5 6 5 5 6 6 6 6 7 7 6 5 5
5 3 4 4 6 4 6 5 5 5 6 9 9 7 7 6 5 5 5 3 3 4 3 3 2 2 3 4 4 3 4 5 5 5 5 5 5 5 6 6 6 5 5 5
3 4 4 4 4 3 6 8 5 3 6 8 11 10 10 9 6 5 8 6 5 4 3 1 1 2 3 3 2 3 5 5 5 4 4 4 4 4 5 5 5 4 4 4
5 5 6 6 6 2 8 9 6 3 2 5 9 9 11 10 4 6 9 8 6 4 3 1 1 1 2 2 2 3 5 5 4 4 4 3 3 3 4 4 4 4 4 4
6 5 5 4 5 1 10 8 6 3 3 3 5 8 9 7 7 7 8 7 6 5 4 2 1 0 1 1 2 3 4 3 3 2 2 2 3 4 4 3 4 4 4 4
4 3 2 2 1 6 8 7 5 3 1 3 5 6 8 8 8 8 8 8 6 5 5 3 2 2 1 1 1 2 3 2 2 1 1 1 1 2 3 3 4 4 4 4
5 2 2 4 4 5 9 8 6 5 3 3 5 6 8 8 8 8 8 8 7 6 5 4 4 3 2 3 2 2 2 1 1 1 1 1 2 2 3 3 3 4 4 4
1 2 3 6 6 4 5 8 8 6 5 5 5 6 8 8 8 9 8 7 7 6 5 4 4 3 2 3 3 3 2 2 2 2 2 3 3 2 2 2 2 3 3 2
7 6 5 5 3 2 1 5 7 8 8 7 7 7 8 8 8 8 8 7 7 7 6 5 5 4 3 3 4 4 4 3 3 1 1 1 2 2 1 2 2 2 2 3
Wind_Direction
210 241 47 23 359 322 316 311 47 102 99 100 118 120 106 67 49 24 20 18 18 11 5 17 11 7 1 357 354 348 346 343 339 330 320 313 305 303 294 285 277 272 260 249
184 99 48 3 331 309 304 309 86 108 103 310 156 140 121 88 62 41 24 22 18 6 0 11 10 7 1 359 355 347 345 343 338 326 318 300 295 293 286 282 280 273 260 249
88 73 40 325 347 335 322 358 -0 78 139 225 229 180 145 127 85 56 35 29 19 9 6 8 7 4 2 2 356 348 347 348 342 335 330 323 316 311 305 298 287 280 274 258
91 92 323 311 29 343 346 36 342 293 241 218 209 216 144 129 83 48 34 27 21 16 8 6 7 3 1 0 355 352 351 350 347 344 342 337 330 319 310 312 308 305 295 279
95 51 5 16 34 340 3 333 282 259 254 262 221 253 131 125 55 36 28 23 22 14 7 7 9 4 359 358 357 356 353 354 351 350 348 346 339 325 318 318 314 313 311 299
100 76 34 29 53 290 290 256 243 241 251 251 192 273 101 63 34 16 16 20 21 14 10 7 9 6 357 358 0 358 358 354 352 352 356 355 345 339 336 333 326 321 314 311
155 133 114 340 279 208 260 290 270 228 215 131 77 81 84 73 50 18 13 19 16 19 17 10 8 5 358 359 1 357 360 357 356 355 359 356 351 343 339 336 334 333 329 327
195 140 105 50 358 332 308 298 317 318 332 107 151 86 102 94 85 42 33 34 23 21 17 15 12 4 357 359 1 360 1 1 360 358 357 354 354 346 338 342 348 352 344 331
340 100 106 68 2 318 312 330 344 300 288 276 128 118 128 124 83 44 31 29 24 17 16 17 12 6 2 2 4 4 4 5 2 1 358 360 0 358 355 356 357 356 350 345
320 106 126 128 224 200 306 323 299 288 332 323 109 104 102 88 47 24 24 26 20 15 17 18 13 7 6 4 4 4 8 7 3 3 3 5 1 2 2 5 5 2 357 356
301 239 145 187 246 14 308 265 312 295 283 320 353 75 74 82 67 26 26 28 16 13 16 17 16 10 6 9 8 5 13 12 7 5 4 3 2 9 13 12 5 4 2 3
329 299 156 119 87 42 332 343 334 324 345 321 305 105 98 102 103 70 43 25 13 8 18 30 22 16 9 9 10 14 17 16 12 7 6 6 6 13 16 14 8 7 8 7
347 284 197 154 156 183 201 105 316 306 285 289 334 115 136 136 116 92 61 25 17 6 20 36 24 22 10 13 19 19 20 18 17 15 12 11 15 14 13 13 13 12 11 14
316 277 340 10 29 110 168 170 246 284 297 328 53 119 159 155 137 126 114 46 33 19 23 36 25 25 18 29 30 21 17 20 27 27 20 16 17 15 15 14 16 16 14 19
264 282 68 76 36 336 272 233 228 258 295 317 21 45 151 135 142 146 153 98 27 31 24 31 32 22 26 45 39 30 23 29 36 37 28 17 17 17 17 16 19 19 18 22
245 289 231 206 196 238 252 235 229 239 252 262 270 256 123 129 155 176 163 130 65 41 29 24 26 19 20 43 52 42 39 40 45 45 32 18 21 19 14 19 21 20 21 22
211 257 284 255 167 244 253 218 210 216 218 230 242 192 141 162 178 183 156 150 120 70 46 33 21 20 13 29 45 46 46 49 49 44 38 26 24 21 14 17 21 22 24 25
291 275 279 282 218 258 98 99 173 213 223 220 228 158 162 172 162 170 177 164 126 103 72 51 20 7 2 25 39 47 66 63 57 43 38 35 27 20 15 15 16 21 24 29
320 294 280 282 294 268 143 157 171 207 239 215 212 190 175 165 174 191 176 150 114 103 90 71 353 341 17 23 19 26 59 66 59 47 42 37 29 21 18 15 13 17 21 26
264 278 278 290 286 308 108 129 142 203 259 202 193 188 177 178 208 187 159 154 142 122 113 107 293 7 31 19 4 26 60 63 54 45 48 41 31 27 25 13 9 12 20 23
194 213 233 265 276 302 116 128 146 213 0 136 175 179 180 193 203 143 148 149 141 138 136 169 285 36 24 359 4 44 62 67 60 46 45 35 25 36 39 15 5 12 19 26
209 213 208 219 250 225 137 153 197 233 113 161 181 178 180 177 152 139 140 140 147 153 160 177 261 18 58 13 8 70 80 86 93 81 64 50 37 27 31 16 10 15 16 28
224 272 307 263 350 118 173 198 226 274 219 175 188 181 176 175 165 158 156 158 165 169 167 173 216 233 185 134 38 74 108 108 124 132 128 108 89 75 34 15 20 20 20 26
193 212 276 290 274 195 201 220 227 232 235 199 190 183 179 182 176 171 175 174 171 173 172 177 211 229 191 151 149 126 124 169 207 189 169 137 82 70 61 32 27 38 26 21
350 151 241 258 267 253 210 211 221 217 215 210 198 191 189 189 187 182 187 184 175 170 170 179 208 226 204 170 172 157 166 229 241 218 180 143 126 107 85 86 49 53 70 64
257 224 222 251 283 279 255 190 205 211 209 209 205 201 196 195 195 191 192 184 175 171 170 181 207 223 218 186 179 163 166 231 263 271 92 118 142 147 161 154 131 62 89 114